Location: Philipsburg
(46.3359°N, 113.2993°W)
Time: 14:10:50
(UTC+00:00)

Envisat - Pass Details

Date: 30 January 2022
Orbit: 764 x 765 km, 98.2° (Epoch: 17 May)

Event Time Altitude Azimuth Distance (km) Brightness Sun altitude
Rises 13:29:19 0° 5° (N) 3,243 6.2 -15.5°
Reaches altitude 10° 13:31:50 10° 355° (N) 2,312 5.3 -15.1°
Maximum altitude 13:36:16 31° 295° (WNW) 1,319 3.7 -14.3°
Drops below altitude 10° 13:40:41 10° 234° (SW) 2,300 5.1 -13.6°
Sets 13:43:12 0° 224° (SW) 3,222 5.9 -13.2°
